[[{"header":{"parameterUnit":"m.s-1","parameterCategory":1,"la1":30.2992,"la2":30.254,"lo1":-89.0895,"lo2":-89.0443,"dy":0.0025,"dx":0.0025,"nx":19,"ny":19,"refTime":"2026-04-20T03:00:00:Z","depth":0,"parameterNumber":2,"parameterNumberName":"U-component_of_WINDS"},"data":[0,0,0,-6.1545,-6.1548,-6.1623,-6.1623,-6.1795,-6.1797,0,0,0,0,0,0,0,0,0,0,0,-6.1569,-6.1572,-6.1545,-6.1548,-6.1623,-6.1623,-6.1795,-6.1797,0,0,0,0,0,0,0,0,0,0,0,-6.1568,-6.1571,-6.1574,-6.1549,-6.1623,-6.1623,-6.1794,-6.1711,0,0,0,0,0,0,0,0,0,0,-6.1625,-6.1692,-6.157,-6.1574,-6.1549,-6.1623,-6.1623,-6.1705,-6.1716,-6.1794,0,-6.1875,0,-6.1839,-6.1814,-6.1815,0,0,0,-6.1514,-6.1683,-6.1662,-6.1575,-6.155,-6.1623,-6.1579,-6.171,-6.1723,-6.1809,-6.1877,-6.1881,-6.1842,-6.1815,-6.1817,-6.2376,-6.238,0,0,-6.151,-6.1608,-6.1654,-6.1672,-6.1664,-6.1577,-6.1582,-6.1716,-6.1798,-6.1877,-6.1884,-6.1845,-6.1817,-6.1819,-6.2372,-6.2377,0,0,0,-6.1521,-6.1607,-6.1579,-6.1667,-6.1674,-6.158,-6.1586,-6.1792,-6.1774,-6.1885,-6.1847,-6.1818,-6.1821,-6.2368,-6.2374,-6.2674,0,0,0,-6.1517,-6.1612,-6.1579,-6.164,-6.1673,-6.1734,-6.166,-6.1765,-6.1777,-6.1846,-6.1819,-6.1824,-6.2363,-6.2371,-6.2656,-6.28,0,0,0,-6.1548,-6.1615,-6.1642,-6.1645,-6.168,-6.1729,-6.1719,-6.1765,-6.1757,-6.1815,-6.1824,-6.236,-6.2369,-6.264,-6.2773,-6.2974,0,0,0,-6.1611,-6.191,-6.1648,-6.1968,-6.1681,-6.1915,-6.1717,-6.1887,-6.1973,-6.182,-6.2363,-6.2373,-6.2634,-6.2756,-6.2957,-6.316,-6.3254,0,0,-6.2042,-6.1966,-6.2145,-6.1913,-6.2219,-6.1896,-6.2245,-6.2233,-6.2151,-6.2306,-6.2318,-6.2662,-6.2771,-6.297,-6.3749,-6.3825,0,0,0,-6.2315,-6.2446,-6.2505,-6.2591,-6.2588,-6.2597,-6.252,-6.2515,-6.2642,-6.225,-6.2787,-6.2849,-6.2962,-6.3054,-6.3118,-6.3208,-6.2421,-6.242,-6.2419,-6.3067,-6.2943,-6.3232,-6.3118,-6.3204,-6.3121,-6.3179,-6.3158,-6.3011,-6.314,-6.3185,-6.3672,-6.3784,-6.3831,-6.3927,-6.3283,-6.3284,-6.3285,-6.3286,-6.3686,-6.385,-6.3645,-6.3851,-6.372,-6.3892,-6.3825,-6.3714,-6.3856,-6.3629,-6.3722,-6.3483,-6.3918,-6.3995,-6.3308,-6.3304,-6.3301,-6.3299,-6.3298,-6.4163,-6.4219,-6.4208,-6.4317,-6.4416,-6.429,-6.4435,-6.431,-6.4194,-6.4287,-6.432,-6.4314,-6.4292,-6.4312,-6.4314,-6.4315,-6.4317,-6.4318,-6.4319,-6.4661,-6.4637,-6.4773,-6.4795,-6.4832,-6.4866,-6.4786,-6.4819,-6.4825,-6.4723,-6.4723,-6.4562,-6.3984,-6.384,-6.4345,-6.434,-6.4337,-6.4334,-6.4332,-6.5332,-6.5159,-6.5371,-6.5408,-6.5421,-6.5527,-6.5366,-6.5446,-6.5456,-6.5531,-6.535,-6.4944,-6.4856,-6.4805,-6.4685,-6.5377,-6.5377,-6.5377,-6.5377,-6.5732,-6.5675,-6.5861,-6.5929,-6.5981,-6.5857,-6.6099,-6.6041,-6.5953,-6.5952,-6.5834,-6.5665,-6.5618,-6.5558,-6.549,-6.5375,-6.6228,-6.6229,-6.623,-6.6136,-6.6079,-6.6308,-6.6217,-6.6218,-6.6222,-6.6445,-6.6533,-6.6398,-6.6262,-6.5948,-6.5912,-6.5637,-6.5555,-6.541,-6.5307,-6.5094,0,0]},{"header":{"parameterUnit":"m.s-1","parameterCategory":1,"la1":30.2992,"la2":30.254,"lo1":-89.0895,"lo2":-89.0443,"dy":0.0025,"dx":0.0025,"nx":19,"ny":19,"refTime":"2026-04-20T03:00:00:Z","depth":0,"parameterNumber":3,"parameterNumberName":"V-component_of_WINDS"},"data":[0,0,0,0.4112,0.4113,0.4101,0.4101,0.4123,0.4123,0,0,0,0,0,0,0,0,0,0,0,0.4137,0.4137,0.4112,0.4113,0.4101,0.41,0.4123,0.4123,0,0,0,0,0,0,0,0,0,0,0,0.4136,0.4137,0.4138,0.4113,0.4101,0.41,0.4122,0.4119,0,0,0,0,0,0,0,0,0,0,0.4124,0.4166,0.4137,0.4138,0.4113,0.4101,0.41,0.4118,0.4119,0.4144,0,0.4169,0,0.4147,0.4127,0.4127,0,0,0,0.4098,0.4165,0.4143,0.4138,0.4113,0.4101,0.4102,0.4118,0.4119,0.4145,0.4169,0.4169,0.4147,0.4127,0.4127,0.4319,0.432,0,0,0.4098,0.4146,0.4143,0.4145,0.4147,0.4102,0.4102,0.4118,0.4148,0.4169,0.4169,0.4148,0.4128,0.4128,0.4317,0.4319,0,0,0,0.411,0.4147,0.4124,0.4145,0.414,0.4102,0.4102,0.4147,0.4136,0.4169,0.4148,0.4128,0.4129,0.4315,0.4318,0.4445,0,0,0,0.411,0.4154,0.4125,0.4154,0.4141,0.4143,0.4131,0.4135,0.4135,0.4148,0.4128,0.4129,0.4313,0.4317,0.4437,0.4497,0,0,0,0.413,0.4156,0.4161,0.4157,0.4153,0.4142,0.413,0.4133,0.4123,0.4127,0.4129,0.4312,0.4316,0.4431,0.4486,0.4564,0,0,0,0.4166,0.4273,0.4164,0.4275,0.4153,0.422,0.413,0.4177,0.4195,0.4128,0.4314,0.4318,0.4428,0.4479,0.4557,0.4639,0.4677,0,0,0.4327,0.4294,0.4356,0.4258,0.4356,0.4217,0.4334,0.4306,0.4263,0.4303,0.4307,0.444,0.4485,0.4562,0.4869,0.49,0,0,0,0.4423,0.4469,0.4484,0.4504,0.4485,0.4475,0.4424,0.4414,0.4446,0.4293,0.4486,0.4511,0.4555,0.4592,0.4618,0.4653,0.4336,0.4336,0.4335,0.4721,0.466,0.476,0.4699,0.472,0.4667,0.468,0.4658,0.4589,0.4637,0.4649,0.4842,0.4887,0.4906,0.4944,0.4685,0.4685,0.4686,0.4686,0.4954,0.501,0.4919,0.4983,0.4919,0.4973,0.4928,0.4879,0.4921,0.4827,0.4862,0.4767,0.4942,0.4972,0.4695,0.4694,0.4692,0.4692,0.4691,0.5144,0.516,0.5146,0.5171,0.5198,0.5132,0.5178,0.5118,0.5061,0.5096,0.5104,0.5102,0.5095,0.5104,0.5105,0.5105,0.5106,0.5106,0.5107,0.5347,0.5327,0.5372,0.5364,0.537,0.5372,0.5322,0.5327,0.5318,0.5271,0.5271,0.5201,0.4969,0.4914,0.5117,0.5115,0.5114,0.5113,0.5112,0.5609,0.5541,0.5611,0.5618,0.5604,0.5637,0.5559,0.5577,0.5572,0.5598,0.552,0.5358,0.5319,0.5298,0.5252,0.5531,0.5531,0.5531,0.5531,0.5771,0.5746,0.5806,0.5822,0.583,0.5768,0.5853,0.5817,0.5769,0.5764,0.5714,0.5647,0.5628,0.5601,0.5573,0.553,0.5873,0.5873,0.5873,0.5931,0.5904,0.5986,0.5938,0.5924,0.5914,0.5993,0.6017,0.5948,0.5886,0.5759,0.5744,0.5635,0.5602,0.5539,0.5497,0.5415,0,0]}]]